Location: Eaton Estates
(41.3089°N, 82.0057°W)
Time: 07:22:48
(UTC+00:00)

NOAA 18 - Pass Details

Date: 10 April 2023
Orbit: 838 x 860 km, 98.9° (Epoch: 03 June)

Event Time Altitude Azimuth Distance (km) Brightness Sun altitude
Exits shadow 02:15:21 24° 59° (ENE) 1,696 6.5 -23.8°
Drops below altitude 10° 02:19:27 10° 11° (NNE) 2,504 7.9 -24.4°
Sets 02:22:13 0° 359° (N) 3,443 8.9 -24.8°
